TimeEDT,TemperatureF,Dew PointF,Humidity,Sea Level PressureIn,VisibilityMPH,Wind Direction,Wind SpeedMPH,Gust SpeedMPH,PrecipitationIn,Events,Conditions,WindDirDegrees,DateUTC
12:51 AM,36.0,35.1,97,30.26,10.0,Calm,Calm,-,N/A,,Clear,0,2013-09-29 04:51:00
1:27 AM,35.6,33.8,93,30.24,10.0,Calm,Calm,-,N/A,,Scattered Clouds,0,2013-09-29 05:27:00
1:39 AM,35.6,33.8,93,30.24,10.0,Calm,Calm,-,N/A,,Mostly Cloudy,0,2013-09-29 05:39:00
1:51 AM,35.1,34.0,96,30.26,5.0,Calm,Calm,-,N/A,,Overcast,0,2013-09-29 05:51:00
2:26 AM,33.8,33.8,100,30.23,1.5,Calm,Calm,-,N/A,,Overcast,0,2013-09-29 06:26:00
2:35 AM,33.8,33.8,100,30.23,0.5,Calm,Calm,-,N/A,Fog,Fog,0,2013-09-29 06:35:00
2:43 AM,33.8,33.8,100,30.23,0.2,Calm,Calm,-,N/A,Fog,Fog,0,2013-09-29 06:43:00
2:51 AM,33.1,33.1,100,30.25,0.5,Calm,Calm,-,N/A,Fog,Fog,0,2013-09-29 06:51:00
2:56 AM,33.8,33.8,100,30.23,2.0,Calm,Calm,-,N/A,,Mist,0,2013-09-29 06:56:00
3:03 AM,33.8,33.8,100,30.23,7.0,Calm,Calm,-,N/A,,Unknown,0,2013-09-29 07:03:00
3:10 AM,33.8,33.8,100,30.22,8.0,Calm,Calm,-,N/A,,Mostly Cloudy,0,2013-09-29 07:10:00
3:28 AM,33.8,33.8,100,30.22,-9999.0,North,-9999.0,-,N/A,,Unknown,0,2013-09-29 07:28:00
3:42 AM,33.8,33.8,100,30.22,0.2,Calm,Calm,-,N/A,Fog,Fog,0,2013-09-29 07:42:00
3:46 AM,33.8,33.8,100,30.22,1.0,Calm,Calm,-,N/A,,Mist,0,2013-09-29 07:46:00
3:51 AM,33.1,33.1,100,30.23,0.8,Calm,Calm,-,N/A,,Mist,0,2013-09-29 07:51:00
3:57 AM,33.8,33.8,100,30.22,0.2,Calm,Calm,-,N/A,Fog,Fog,0,2013-09-29 07:57:00
4:10 AM,33.8,32.0,93,30.21,0.5,Calm,Calm,-,N/A,Fog,Fog,0,2013-09-29 08:10:00
4:31 AM,32.0,32.0,100,30.21,0.2,Calm,Calm,-,N/A,Fog,Fog,0,2013-09-29 08:31:00
4:51 AM,32.0,32.0,100,30.22,0.2,Calm,Calm,-,N/A,Fog,Fog,0,2013-09-29 08:51:00
5:04 AM,32.0,30.2,93,30.20,0.8,Calm,Calm,-,N/A,,Mist,0,2013-09-29 09:04:00
5:10 AM,32.0,32.0,100,30.21,2.5,Calm,Calm,-,N/A,,Overcast,0,2013-09-29 09:10:00
5:17 AM,32.0,32.0,100,30.21,7.0,Calm,Calm,-,N/A,,Overcast,0,2013-09-29 09:17:00
5:22 AM,32.0,32.0,100,30.21,1.5,Calm,Calm,-,N/A,,Overcast,0,2013-09-29 09:22:00
5:28 AM,32.0,32.0,100,30.21,0.2,Calm,Calm,-,N/A,Fog,Fog,0,2013-09-29 09:28:00
5:51 AM,32.0,30.9,96,30.22,0.2,Calm,Calm,-,N/A,Fog,Fog,0,2013-09-29 09:51:00
6:18 AM,32.0,30.2,93,30.21,0.5,Calm,Calm,-,N/A,Fog,Fog,0,2013-09-29 10:18:00
6:29 AM,32.0,32.0,100,30.21,2.0,Calm,Calm,-,N/A,,Overcast,0,2013-09-29 10:29:00
6:44 AM,32.0,30.2,93,30.21,0.8,Calm,Calm,-,N/A,,Mist,0,2013-09-29 10:44:00
6:51 AM,30.9,30.9,100,30.24,0.5,Calm,Calm,-,N/A,Fog,Light Freezing Fog,0,2013-09-29 10:51:00
7:06 AM,30.2,30.2,100,30.21,0.2,Calm,Calm,-,N/A,Fog,Light Freezing Fog,0,2013-09-29 11:06:00
7:30 AM,32.0,32.0,100,30.21,0.5,Calm,Calm,-,N/A,Fog,Fog,0,2013-09-29 11:30:00
7:37 AM,33.8,32.0,93,30.21,0.2,Calm,Calm,-,N/A,Fog,Fog,0,2013-09-29 11:37:00
7:51 AM,34.0,34.0,100,30.25,0.5,Calm,Calm,-,N/A,Fog,Fog,0,2013-09-29 11:51:00
7:58 AM,35.6,35.6,100,30.21,0.2,Calm,Calm,-,N/A,Fog,Fog,0,2013-09-29 11:58:00
8:15 AM,37.4,37.4,100,30.21,0.8,Calm,Calm,-,N/A,,Mist,0,2013-09-29 12:15:00
8:25 AM,41.0,39.2,93,30.21,1.5,Calm,Calm,-,N/A,,Mostly Cloudy,0,2013-09-29 12:25:00
8:29 AM,42.8,41.0,93,30.21,3.0,Calm,Calm,-,N/A,,Mostly Cloudy,0,2013-09-29 12:29:00
8:38 AM,44.6,42.8,93,30.21,10.0,Calm,Calm,-,N/A,,Scattered Clouds,0,2013-09-29 12:38:00
8:51 AM,46.0,45.0,96,30.23,10.0,Calm,Calm,-,N/A,,Clear,0,2013-09-29 12:51:00
9:51 AM,57.0,48.0,72,30.22,10.0,South,3.5,-,N/A,,Clear,190,2013-09-29 13:51:00
10:51 AM,63.0,48.0,58,30.21,10.0,Variable,5.8,-,N/A,,Clear,0,2013-09-29 14:51:00
11:51 AM,64.9,44.1,47,30.18,10.0,SSW,9.2,-,N/A,,Clear,200,2013-09-29 15:51:00
12:51 PM,66.9,44.1,44,30.16,10.0,SW,6.9,-,N/A,,Clear,220,2013-09-29 16:51:00
1:51 PM,70.0,43.0,38,30.13,10.0,West,9.2,-,N/A,,Clear,260,2013-09-29 17:51:00
2:51 PM,71.1,37.9,30,30.12,10.0,South,12.7,17.3,N/A,,Clear,190,2013-09-29 18:51:00
3:51 PM,71.1,39.0,31,30.09,10.0,South,6.9,-,N/A,,Clear,180,2013-09-29 19:51:00
4:51 PM,70.0,39.0,32,30.08,10.0,SSW,6.9,-,N/A,,Clear,210,2013-09-29 20:51:00
5:51 PM,66.0,42.1,42,30.08,10.0,SW,5.8,-,N/A,,Clear,220,2013-09-29 21:51:00
6:51 PM,55.0,46.0,72,30.09,10.0,Calm,Calm,-,N/A,,Clear,0,2013-09-29 22:51:00
7:51 PM,48.9,45.0,86,30.10,10.0,Calm,Calm,-,N/A,,Clear,0,2013-09-29 23:51:00
8:51 PM,46.0,43.0,89,30.11,10.0,Calm,Calm,-,N/A,,Clear,0,2013-09-30 00:51:00
9:51 PM,41.0,39.9,96,30.11,10.0,Calm,Calm,-,N/A,,Clear,0,2013-09-30 01:51:00
10:51 PM,39.9,39.0,97,30.11,10.0,Calm,Calm,-,N/A,,Clear,0,2013-09-30 02:51:00
11:51 PM,39.0,39.0,100,30.10,10.0,Calm,Calm,-,N/A,,Clear,0,2013-09-30 03:51:00